Location: Newark
(48.8656°N, 2.3211°E)
Time: 03:07:22
(UTC+00:00)

Envisat - Pass Details

Date: 13 December 2019
Orbit: 764 x 766 km, 98.1° (Epoch: 23 January)

Event Time Altitude Azimuth Distance (km) Brightness Sun altitude
Rises 19:05:52 0° 212° (SSW) 3,223 6.6 -30.4°
Reaches altitude 10° 19:09:00 10° 232° (SW) 2,303 6.1 -30.9°
Maximum altitude 19:12:13 17° 272° (W) 1,884 5.8 -31.4°
Drops below altitude 10° 19:15:26 10° 311° (NW) 2,314 6.0 -31.9°
Sets 19:18:37 0° 332° (NNW) 3,246 6.6 -32.5°
